Regional Weather Roundup
Issued by NWS

Home | Current Version | Previous Version | Text Only | Print | Product List | Glossary On
Versions: 1 2 3 4 5 6 7 8 9 10 11 12 13 14 15 16 17 18 19 20 21 22 23 24 25 26 27 28 29 30 31 32 33 34 35 36 37 38 39 40 41 42 43 44 45 46 47 48 49 50
000
ASUS46 KLOX 260412
RWRCA

SOUTHERN CALIFORNIA WEATHER ROUNDUP
NATIONAL WEATHER SERVICE OXNARD CALIFORNIA
900 PM PDT SAT OCT 25 2014

NOTE: "FAIR" INDICATES FEW OR NO CLOUDS BELOW 12,000 FEET WITH NO
SIGNIFICANT WEATHER AND/OR OBSTRUCTIONS TO VISIBILITY.

  -  STATIONS PRECEEDED BY AN ASTERISK (*) ARE NOT NWS OR FAA
     STATIONS AND ARE NOT SUBJECT TO NWS AND FAA QUALITY CONTROL.

CAZ041-042-087-260500-
LA AND ORANGE COUNTY COASTAL AREAS


CITY           SKY/WX    TMP DP  RH WIND       PRES   REMARKS
L.A. DOWNTOWN  CLEAR     68  60  75 CALM      30.00R
L.A. AIRPORT   PTCLDY    68  62  81 W10       30.00S
LONG BEACH     CLEAR     70  62  76 W9        30.01R

CITY           SKY/WX    TMP DP  RH WIND       PRES   REMARKS
AVALON           N/A     63 N/A N/A SE1         N/A
FULLERTON      CLEAR     69  58  67 VRB3      30.00S
*GETTY CENTER    N/A     66  50  55 NE2G8       N/A
HAWTHORNE      CLEAR     69  63  81 W7        30.00S
*LEO CARRILLO    N/A     68  60  74 W7          N/A
*LOS ALAMITOS  FAIR      67  60  78 W5        30.01S
*REDONDO BEACH   N/A     68  62  82 W2        30.00S
SANTA ANA      CLEAR     71  61  70 CALM      30.01R
STA MONICA APT CLEAR     68  61  78 CALM      30.00S
*UCLA            N/A     64  55  72 CALM      29.98S

$$

CAZ547-548-048-260500-
LA COUNTY VALLEYS AND INLAND EMPIRE


CITY           SKY/WX    TMP DP  RH WIND       PRES   REMARKS
BURBANK        CLEAR     70  55  59 CALM      30.01R
VAN NUYS       CLEAR     68  53  58 CALM      30.02R

CITY           SKY/WX    TMP DP  RH WIND       PRES   REMARKS
CORONA AIRPORT LGT RAIN  68  53  58 W3        30.01R
*CHATSWORTH      N/A     65  55  71 CALM      29.99S
CHINO          CLEAR     65  53  65 W6        30.02R
*CLAREMONT       N/A     63  44  50 CALM        N/A
MARCH AFB      CLEAR     66  51  58 NW6       30.04R
*NORTHRIDGE      N/A     64  50  59 S1          N/A
ONTARIO        CLEAR     68  50  52 W7        30.01R
*PASADENA        N/A     68  54  60 CALM        N/A
RIVERSIDE      CLEAR     69  51  52 CALM      30.02R
SAN BERNARDINO CLEAR     68  48  49 SW5       30.03R
*SAN RAFAEL HI   N/A     65  45  48 NW3         N/A
*SAUGUS          N/A     62  45  53 S2G15       N/A
*WHITEMAN AP   NOT AVBL
*WHITTIER HILL   N/A     63  58  84 SW3         N/A
*WOODLAND HILL   N/A     64  54  68 S3          N/A

$$

CAZ054-055-260500-
LA AND SAN BERNARDINO COUNTY MOUNTAINS


CITY           SKY/WX    TMP DP  RH WIND       PRES   REMARKS
*ACTON           N/A     64  43  46 CALM        N/A
*BIG BEAR AIRP CLEAR     45  36  70 CALM      30.24S
*BIG PINES       N/A     49  39  69 S3          N/A
MT WILSON NWS    N/A     54  41  62 SW9         N/A
SANDBERG       CLEAR     57  38  48 NW18G26   30.15R

$$

CAZ028-029-059-060-099-260500-
ANTELOPE VALLEY AND SURROUNDING AREAS


CITY           SKY/WX    TMP DP  RH WIND       PRES   REMARKS
LANCASTER      CLEAR     60  35  39 W10       30.07R
PALMDALE       CLEAR     64  38  38 NW13      30.07R
*POPPY PARK      N/A     63  40  42 W8          N/A

CITY           SKY/WX    TMP DP  RH WIND       PRES   REMARKS
29 PALMS       CLEAR     74  44  34 W13       30.06R
BARSTOW/DAGGET CLEAR     73  43  33 W14       29.99R
BISHOP         CLEAR     59   8  13 NE10      29.96R
CHINA LAKE     CLEAR     68  28  22 S16       29.99R
EDWARDS AFB    CLEAR     64  37  36 SW5       30.04R
MOJAVE         FAIR      63  39  42 W22       30.06R
NEEDLES        CLEAR     83  44  25 W10       29.88S
VICTORVILLE    CLEAR     64  41  42 SW3       30.07S

$$

CAZ039-040-260500-
VENTURA AND SANTA BARBARA COUNTY COAST


CITY           SKY/WX    TMP DP  RH WIND       PRES   REMARKS
CAMARILLO      CLEAR     65  60  84 E3        30.01S
NWS OXNARD       N/A     63  58  84 CALM      30.01R
OXNARD AIRPORT CLEAR     64  59  83 E3        30.01S
*POINT MUGU    CLEAR     66  61  84 CALM      30.02S
SBA APT/GOLETA PTCLDY    66  56  70 SE6       29.99S
*VENTURA         N/A     64  60  86 CALM      30.05S

$$

CAZ044-045-260500-
VENTURA COUNTY VALLEYS


CITY           SKY/WX    TMP DP  RH WIND       PRES   REMARKS
*SIMI VALLEY     N/A     60  55  85 CALM      30.00R
*OJAI            N/A     56  51  81 CALM      29.97S
*FILLMORE        N/A     60  54  79 CALM      29.94R

$$

CAZ053-260500-
VENTURA COUNTY MOUNTAINS


CITY           SKY/WX    TMP DP  RH WIND       PRES   REMARKS
*LOCKWOOD VLY    N/A     43  28  56 MISG        N/A
*ROSE VALLEY     N/A     45  32  61 MISG        N/A

$$

CAZ034-035-036-260500-
CENTRAL COAST AND SANTA YNEZ VALLEY


CITY           SKY/WX    TMP DP  RH WIND       PRES   REMARKS
SAN LUIS OBISP CLEAR     61  57  87 NW10      30.08R
SANTA MARIA    PTCLDY    62  57  83 NW6       30.09R

CITY           SKY/WX    TMP DP  RH WIND       PRES   REMARKS
*CAL POLY SLO    N/A     61  59  94 W2G10       N/A
*LOMPOC        CLEAR     63  55  77 W5        30.09R
*PISMO BEACH     N/A     64  57  80 W1        30.08S
*SANTA YNEZ    FAIR      59  54  82 W6        30.08R

$$

CAZ037-038-051-260500-
SAN LUIS OBISPO COUNTY INTERIOR AND CUYAMA VALLEY


CITY           SKY/WX    TMP DP  RH WIND       PRES   REMARKS
*CUYAMA          N/A     61  53  73 NW2       30.04R
PASO ROBLES    CLEAR     62  49  62 NW10      30.08R

$$

CAZ032-033-061-260500-
SOUTHERN DESERTS


CITY           SKY/WX    TMP DP  RH WIND       PRES   REMARKS
BLYTHE         CLEAR     84  49  29 SW7       29.86R
IMPERIAL       CLEAR     78  56  46 W9        29.85R
PALM SPRINGS   CLEAR     85  46  25 NW14      29.92R
THERMAL        CLEAR     83  47  28 N13       29.85R

$$

ELSEWHERE ACROSS THE WESTERN UNITED STATES AND MEXICO


CITY           SKY/WX    TMP DP  RH WIND       PRES   REMARKS
DENVER, CO     CLEAR     58  25  28 SW13      30.01F
GRAND CANYON,  CLEAR     46  37  71 CALM      30.24S
HONOLULU, HI   PTCLDY    81  68  65 NE10      29.97R
KAHULUI, MAUI  PTCLDY    79  68  69 NE16      29.96R
LAKE TAHOE, CA CLEAR     40  30  67 SE10      30.12S WCI  33
LAS VEGAS, NV  PTCLDY    77  40  26 S9        29.90S
MAMMOTH LAKES, FAIR      50  14  23 S16G29    30.11S
MEXICO CITY, M CLEAR     57  45  62 NW8       30.41R
PHOENIX, AZ    CLEAR     85  52  32 W3        29.89S
PORTLAND, OR   LGT RAIN  55  49  80 SW16G23   29.80R
RENO, NV       PTCLDY    51  28  41 S29G44    30.02F
SALT LAKE CITY PTCLDY    71  38  29 S23G38    29.88R
SAN DIEGO, CA  PTCLDY    69  62  78 N3        30.03R
SAN FRANCISCO, MOCLDY    65  58  78 CALM      30.11R
SAN JOSE, CA   PTCLDY    62  53  72 W6        30.11R
SEATTLE, WA    CLOUDY    53  48  83 SW26G43   29.53R
TIJUANA, MEX   MOCLDY    66  59  77 W5        30.06R

$$

STATION/POSITION TIME  TEMP    WIND        PRES    VSBY  WAVE
                       AIR SEA DIR/SP/G                  HT/PER
                 (UTC) (F)     (DEG/KT/KT) (MB)    (MI)  (FT/S)
POINT ARGUELLO B NOT AVBL
WEST SANTA BARBA 0400   64 64  320/ 17/ 21 1016.8R         9/14
POINT CONCEPTION NOT AVBL
EAST SANTA BARBA 0400   66 67  290/ 12/ 16 1016.2
SANTA MONICA BAY 0400   67 69  280/ 16/ 19 1015.7R         5/11



USA.gov is the U.S. government's official web portal to all federal, state and local government web resources and services.